Time,TemperatureF,DewpointF,PressureIn,WindDirection,WindDirectionDegrees,WindSpeedMPH,WindSpeedGustMPH,Humidity,HourlyPrecipIn,Conditions,Clouds,dailyrainin,SoftwareType,DateUTC
2013-02-18 00:01:00,13.5,6.0,30.05,SSW,201,5.0,-999.0,73,-99.99,,,0.00,weatherlink.com 1.10,2013-02-18 05:01:00,
2013-02-18 00:17:00,13.6,6.0,30.04,SSW,192,5.0,-999.0,73,-99.99,,,0.00,weatherlink.com 1.10,2013-02-18 05:17:00,
2013-02-18 00:32:00,13.7,7.0,30.04,SSW,192,7.0,-999.0,73,-99.99,,,0.00,weatherlink.com 1.10,2013-02-18 05:32:00,
2013-02-18 00:47:00,13.8,7.0,30.04,SSW,199,8.0,-999.0,74,-99.99,,,0.00,weatherlink.com 1.10,2013-02-18 05:47:00,
2013-02-18 01:02:00,14.2,7.0,30.04,SSW,200,11.0,-999.0,73,-99.99,,,0.00,weatherlink.com 1.10,2013-02-18 06:02:00,
2013-02-18 01:17:00,14.5,8.0,30.03,South,183,5.0,-999.0,74,-99.99,,,0.00,weatherlink.com 1.10,2013-02-18 06:17:00,
2013-02-18 01:32:00,15.0,8.0,30.03,South,174,4.0,-999.0,74,-99.99,,,0.00,weatherlink.com 1.10,2013-02-18 06:32:00,
2013-02-18 01:47:00,15.1,9.0,30.02,South,181,5.0,-999.0,75,-99.99,,,0.00,weatherlink.com 1.10,2013-02-18 06:47:00,
2013-02-18 02:03:00,15.1,9.0,30.02,South,184,4.0,-999.0,76,-99.99,,,0.00,weatherlink.com 1.10,2013-02-18 07:03:00,
2013-02-18 02:17:00,15.3,9.0,30.01,SSW,209,5.0,-999.0,76,-99.99,,,0.00,weatherlink.com 1.10,2013-02-18 07:17:00,
2013-02-18 02:32:00,15.6,10.0,30.00,South,178,4.0,-999.0,77,-99.99,,,0.00,weatherlink.com 1.10,2013-02-18 07:32:00,
2013-02-18 02:48:00,15.9,10.0,30.00,SSW,198,9.0,-999.0,77,-99.99,,,0.00,weatherlink.com 1.10,2013-02-18 07:48:00,
2013-02-18 03:03:00,15.9,10.0,29.99,SSE,165,9.0,-999.0,78,-99.99,,,0.00,weatherlink.com 1.10,2013-02-18 08:03:00,
2013-02-18 03:18:00,15.8,10.0,29.98,SSE,162,6.0,-999.0,79,-99.99,,,0.00,weatherlink.com 1.10,2013-02-18 08:18:00,
2013-02-18 03:33:00,15.6,11.0,29.98,South,175,8.0,-999.0,80,-99.99,,,0.00,weatherlink.com 1.10,2013-02-18 08:33:00,
2013-02-18 03:48:00,15.6,11.0,29.97,South,169,6.0,-999.0,81,-99.99,,,0.00,weatherlink.com 1.10,2013-02-18 08:48:00,
2013-02-18 04:03:00,15.9,12.0,29.96,SSE,157,8.0,-999.0,83,-99.99,,,0.00,weatherlink.com 1.10,2013-02-18 09:03:00,
2013-02-18 04:18:00,16.1,12.0,29.95,South,175,9.0,-999.0,84,-99.99,,,0.00,weatherlink.com 1.10,2013-02-18 09:18:00,
2013-02-18 04:33:00,16.5,13.0,29.94,South,173,8.0,-999.0,85,-99.99,,,0.00,weatherlink.com 1.10,2013-02-18 09:33:00,
2013-02-18 05:04:00,17.7,15.0,29.91,South,179,11.0,-999.0,87,-99.99,,,0.00,weatherlink.com 1.10,2013-02-18 10:04:00,
2013-02-18 05:19:00,18.1,15.0,29.90,SSE,154,10.0,-999.0,89,-99.99,,,0.00,weatherlink.com 1.10,2013-02-18 10:19:00,
2013-02-18 05:34:00,18.5,16.0,29.88,SE,146,9.0,-999.0,91,-99.99,,,0.00,weatherlink.com 1.10,2013-02-18 10:34:00,
2013-02-18 05:49:00,19.4,18.0,29.87,SSE,161,7.0,-999.0,92,-99.99,,,0.00,weatherlink.com 1.10,2013-02-18 10:49:00,
2013-02-18 06:04:00,20.4,19.0,29.86,SSE,160,10.0,-999.0,93,-99.99,,,0.00,weatherlink.com 1.10,2013-02-18 11:04:00,
2013-02-18 06:21:00,21.7,20.0,29.85,SSE,153,11.0,-999.0,94,-99.99,,,0.00,weatherlink.com 1.10,2013-02-18 11:21:00,
2013-02-18 06:35:00,23.1,22.0,29.85,SSE,157,11.0,-999.0,95,-99.99,,,0.00,weatherlink.com 1.10,2013-02-18 11:35:00,
2013-02-18 06:49:00,24.6,23.0,29.84,SSE,162,11.0,-999.0,95,-99.99,,,0.00,weatherlink.com 1.10,2013-02-18 11:49:00,
2013-02-18 07:05:00,25.7,25.0,29.84,South,180,11.0,-999.0,95,-99.99,,,0.00,weatherlink.com 1.10,2013-02-18 12:05:00,
2013-02-18 07:20:00,25.9,25.0,29.83,South,183,9.0,-999.0,95,-99.99,,,0.00,weatherlink.com 1.10,2013-02-18 12:20:00,
2013-02-18 07:35:00,26.0,25.0,29.82,SSE,150,11.0,-999.0,94,-99.99,,,0.00,weatherlink.com 1.10,2013-02-18 12:35:00,
2013-02-18 07:50:00,26.0,25.0,29.81,South,169,13.0,-999.0,94,-99.99,,,0.00,weatherlink.com 1.10,2013-02-18 12:50:00,
2013-02-18 08:05:00,26.0,25.0,29.81,South,176,9.0,-999.0,94,-99.99,,,0.00,weatherlink.com 1.10,2013-02-18 13:05:00,
2013-02-18 08:20:00,26.1,24.0,29.81,SSE,168,12.0,-999.0,93,-99.99,,,0.00,weatherlink.com 1.10,2013-02-18 13:20:00,
2013-02-18 08:35:00,26.1,24.0,29.80,South,179,15.0,-999.0,93,-99.99,,,0.00,weatherlink.com 1.10,2013-02-18 13:35:00,
2013-02-18 08:50:00,26.1,24.0,29.79,SSE,158,11.0,-999.0,93,-99.99,,,0.00,weatherlink.com 1.10,2013-02-18 13:50:00,
2013-02-18 09:06:00,26.2,24.0,29.79,SSE,162,13.0,-999.0,92,-99.99,,,0.00,weatherlink.com 1.10,2013-02-18 14:06:00,
2013-02-18 09:21:00,26.5,24.0,29.77,SSE,165,14.0,-999.0,91,-99.99,,,0.00,weatherlink.com 1.10,2013-02-18 14:21:00,
2013-02-18 09:36:00,26.8,24.0,29.77,South,172,9.0,-999.0,89,-99.99,,,0.00,weatherlink.com 1.10,2013-02-18 14:36:00,
2013-02-18 09:51:00,27.1,24.0,29.77,SSE,157,12.0,-999.0,88,-99.99,,,0.00,weatherlink.com 1.10,2013-02-18 14:51:00,
2013-02-18 10:06:00,27.4,24.0,29.75,SSE,150,12.0,-999.0,86,-99.99,,,0.00,weatherlink.com 1.10,2013-02-18 15:06:00,
2013-02-18 10:21:00,27.8,24.0,29.75,South,169,9.0,-999.0,86,-99.99,,,0.00,weatherlink.com 1.10,2013-02-18 15:21:00,
2013-02-18 10:36:00,28.2,24.0,29.74,SSE,168,17.0,-999.0,84,-99.99,,,0.00,weatherlink.com 1.10,2013-02-18 15:36:00,
2013-02-18 10:51:00,28.7,25.0,29.73,South,173,18.0,-999.0,84,-99.99,,,0.00,weatherlink.com 1.10,2013-02-18 15:51:00,
2013-02-18 11:06:00,29.1,25.0,29.73,South,171,12.0,-999.0,83,-99.99,,,0.00,weatherlink.com 1.10,2013-02-18 16:06:00,
2013-02-18 11:22:00,29.6,25.0,29.73,South,177,10.0,-999.0,83,-99.99,,,0.00,weatherlink.com 1.10,2013-02-18 16:22:00,
2013-02-18 11:36:00,29.8,25.0,29.72,South,187,11.0,-999.0,82,-99.99,,,0.00,weatherlink.com 1.10,2013-02-18 16:36:00,
2013-02-18 11:52:00,29.9,25.0,29.71,South,171,10.0,-999.0,83,-99.99,,,0.00,weatherlink.com 1.10,2013-02-18 16:52:00,
2013-02-18 12:07:00,30.1,25.0,29.70,SSE,162,15.0,-999.0,82,-99.99,,,0.00,weatherlink.com 1.10,2013-02-18 17:07:00,
2013-02-18 12:22:00,30.3,26.0,29.69,SSE,154,14.0,-999.0,83,-99.99,,,0.00,weatherlink.com 1.10,2013-02-18 17:22:00,
2013-02-18 12:37:00,30.5,26.0,29.68,SSE,150,18.0,-999.0,83,-99.99,,,0.00,weatherlink.com 1.10,2013-02-18 17:37:00,
2013-02-18 12:52:00,30.7,26.0,29.66,SSE,165,11.0,-999.0,83,-99.99,,,0.00,weatherlink.com 1.10,2013-02-18 17:52:00,
2013-02-18 13:07:00,30.8,27.0,29.66,SSE,161,13.0,-999.0,84,-99.99,,,0.00,weatherlink.com 1.10,2013-02-18 18:07:00,
2013-02-18 13:23:00,31.0,27.0,29.65,South,188,13.0,-999.0,84,-99.99,,,0.00,weatherlink.com 1.10,2013-02-18 18:23:00,
2013-02-18 13:37:00,31.3,27.0,29.64,SSE,156,10.0,-999.0,84,-99.99,,,0.00,weatherlink.com 1.10,2013-02-18 18:37:00,
2013-02-18 13:52:00,31.5,27.0,29.63,South,171,10.0,-999.0,84,-99.99,,,0.00,weatherlink.com 1.10,2013-02-18 18:52:00,
2013-02-18 14:08:00,31.7,27.0,29.63,SSE,167,10.0,-999.0,84,-99.99,,,0.00,weatherlink.com 1.10,2013-02-18 19:08:00,
2013-02-18 14:23:00,32.0,28.0,29.62,SSE,168,12.0,-999.0,85,-99.99,,,0.00,weatherlink.com 1.10,2013-02-18 19:23:00,
2013-02-18 14:38:00,32.2,28.0,29.61,South,184,15.0,-999.0,85,-99.99,,,0.00,weatherlink.com 1.10,2013-02-18 19:38:00,
2013-02-18 14:53:00,32.5,29.0,29.61,SSE,167,8.0,-999.0,86,-99.99,,,0.00,weatherlink.com 1.10,2013-02-18 19:53:00,
2013-02-18 15:08:00,32.6,29.0,29.60,South,171,10.0,-999.0,86,-99.99,,,0.00,weatherlink.com 1.10,2013-02-18 20:08:00,
2013-02-18 15:23:00,32.6,31.0,29.59,South,169,12.0,-999.0,92,-99.99,,,0.00,weatherlink.com 1.10,2013-02-18 20:23:00,
2013-02-18 15:38:00,32.8,29.0,29.59,South,178,9.0,-999.0,86,-99.99,,,0.00,weatherlink.com 1.10,2013-02-18 20:38:00,
2013-02-18 15:54:00,33.1,30.0,29.59,SSE,154,7.0,-999.0,87,-99.99,,,0.01,weatherlink.com 1.10,2013-02-18 20:54:00,
2013-02-18 16:08:00,33.3,30.0,29.59,SSE,168,12.0,-999.0,87,-99.99,,,0.01,weatherlink.com 1.10,2013-02-18 21:08:00,
2013-02-18 16:23:00,33.6,30.0,29.59,SSE,151,10.0,-999.0,87,-99.99,,,0.01,weatherlink.com 1.10,2013-02-18 21:23:00,
2013-02-18 16:39:00,33.8,30.0,29.58,SSE,159,15.0,-999.0,87,-99.99,,,0.01,weatherlink.com 1.10,2013-02-18 21:39:00,
2013-02-18 17:09:00,32.1,28.0,29.57,SE,126,12.0,-999.0,85,-99.99,,,0.01,weatherlink.com 1.10,2013-02-18 22:09:00,
2013-02-18 17:24:00,31.8,28.0,29.56,SSE,148,14.0,-999.0,86,-99.99,,,0.01,weatherlink.com 1.10,2013-02-18 22:24:00,
2013-02-18 17:39:00,31.6,28.0,29.55,SSE,161,9.0,-999.0,85,-99.99,,,0.01,weatherlink.com 1.10,2013-02-18 22:39:00,
2013-02-18 17:54:00,31.9,28.0,29.56,SSE,158,9.0,-999.0,85,-99.99,,,0.01,weatherlink.com 1.10,2013-02-18 22:54:00,
2013-02-18 18:09:00,32.0,28.0,29.57,SSE,165,5.0,-999.0,85,-99.99,,,0.01,weatherlink.com 1.10,2013-02-18 23:09:00,
2013-02-18 18:24:00,32.2,29.0,29.57,SSE,162,8.0,-999.0,86,-99.99,,,0.01,weatherlink.com 1.10,2013-02-18 23:24:00,
2013-02-18 18:40:00,32.4,29.0,29.56,SSE,151,8.0,-999.0,87,-99.99,,,0.01,weatherlink.com 1.10,2013-02-18 23:40:00,
2013-02-18 18:55:00,32.5,29.0,29.55,SSE,152,5.0,-999.0,87,-99.99,,,0.01,weatherlink.com 1.10,2013-02-18 23:55:00,
2013-02-18 19:09:00,32.5,29.0,29.56,SSE,156,0.0,-999.0,88,-99.99,,,0.01,weatherlink.com 1.10,2013-02-19 00:09:00,
2013-02-18 19:25:00,32.4,29.0,29.57,SSE,157,0.0,-999.0,88,-99.99,,,0.01,weatherlink.com 1.10,2013-02-19 00:25:00,
2013-02-18 19:40:00,32.4,30.0,29.55,SE,144,5.0,-999.0,89,-99.99,,,0.01,weatherlink.com 1.10,2013-02-19 00:40:00,
2013-02-18 19:55:00,32.2,30.0,29.55,SE,142,2.0,-999.0,90,-99.99,,,0.01,weatherlink.com 1.10,2013-02-19 00:55:00,
2013-02-18 20:10:00,32.1,30.0,29.54,SE,142,1.0,-999.0,91,-99.99,,,0.01,weatherlink.com 1.10,2013-02-19 01:10:00,
2013-02-18 20:25:00,31.8,30.0,29.53,SE,142,0.0,-999.0,92,-99.99,,,0.01,weatherlink.com 1.10,2013-02-19 01:25:00,
2013-02-18 20:40:00,31.5,30.0,29.53,SE,142,0.0,-999.0,93,-99.99,,,0.01,weatherlink.com 1.10,2013-02-19 01:40:00,
2013-02-18 20:55:00,31.4,30.0,29.53,SE,142,4.0,-999.0,93,-99.99,,,0.01,weatherlink.com 1.10,2013-02-19 01:55:00,
2013-02-18 21:10:00,31.4,30.0,29.52,SE,142,0.0,-999.0,93,-99.99,,,0.01,weatherlink.com 1.10,2013-02-19 02:10:00,
2013-02-18 21:25:00,31.2,30.0,29.52,SE,142,0.0,-999.0,94,-99.99,,,0.01,weatherlink.com 1.10,2013-02-19 02:25:00,
2013-02-18 21:40:00,31.1,30.0,29.51,SE,142,0.0,-999.0,94,-99.99,,,0.01,weatherlink.com 1.10,2013-02-19 02:40:00,
2013-02-18 21:56:00,30.9,30.0,29.50,SE,142,0.0,-999.0,95,-99.99,,,0.01,weatherlink.com 1.10,2013-02-19 02:56:00,
2013-02-18 22:26:00,30.6,29.0,29.50,SE,142,0.0,-999.0,95,-99.99,,,0.01,weatherlink.com 1.10,2013-02-19 03:26:00,
2013-02-18 22:41:00,30.6,29.0,29.48,SE,142,0.0,-999.0,95,-99.99,,,0.01,weatherlink.com 1.10,2013-02-19 03:41:00,
2013-02-18 22:56:00,30.6,29.0,29.48,SE,142,0.0,-999.0,95,-99.99,,,0.01,weatherlink.com 1.10,2013-02-19 03:56:00,
2013-02-18 23:26:00,30.6,30.0,29.46,SE,142,0.0,-999.0,96,-99.99,,,0.01,weatherlink.com 1.10,2013-02-19 04:26:00,
2013-02-18 23:41:00,30.5,30.0,29.46,SE,142,0.0,-999.0,96,-99.99,,,0.01,weatherlink.com 1.10,2013-02-19 04:41:00,
2013-02-18 23:56:00,30.6,30.0,29.45,SE,142,0.0,-999.0,96,-99.99,,,0.01,weatherlink.com 1.10,2013-02-19 04:56:00,